TimeEEST,TemperatureF,Dew PointF,Humidity,Sea Level PressureIn,VisibilityMPH,Wind Direction,Wind SpeedMPH,Gust SpeedMPH,PrecipitationIn,Events,Conditions,WindDirDegrees,DateUTC
12:50 AM,66.2,48.2,52,30.06,-9999.0,Calm,Calm,-,N/A,,Clear,0,2013-09-01 21:50:00
1:50 AM,68.0,46.4,46,30.06,-9999.0,Calm,Calm,-,N/A,,Clear,0,2013-09-01 22:50:00
3:50 AM,64.4,46.4,52,30.04,-9999.0,Calm,Calm,-,N/A,,Clear,0,2013-09-02 00:50:00
4:50 AM,62.6,44.6,52,30.04,-9999.0,Calm,Calm,-,N/A,,Clear,0,2013-09-02 01:50:00
5:50 AM,60.8,44.6,55,30.04,-9999.0,Calm,Calm,-,N/A,,Clear,0,2013-09-02 02:50:00
6:50 AM,62.6,42.8,48,30.04,-9999.0,Calm,Calm,-,N/A,,Clear,0,2013-09-02 03:50:00
7:50 AM,64.4,44.6,49,30.06,6.2,Calm,Calm,-,N/A,,Scattered Clouds,0,2013-09-02 04:50:00
8:50 AM,75.2,44.6,34,30.06,-9999.0,Calm,Calm,-,N/A,,Clear,0,2013-09-02 05:50:00
9:50 AM,78.8,44.6,30,30.09,6.2,Calm,Calm,-,N/A,,Scattered Clouds,0,2013-09-02 06:50:00
10:50 AM,82.4,42.8,25,30.09,6.2,Calm,Calm,-,N/A,,Scattered Clouds,0,2013-09-02 07:50:00
11:50 AM,82.4,41.0,23,30.06,6.2,WNW,5.8,-,N/A,,Scattered Clouds,300,2013-09-02 08:50:00
12:50 PM,86.0,41.0,20,30.06,6.2,ENE,4.6,-,N/A,,Scattered Clouds,70,2013-09-02 09:50:00
1:50 PM,86.0,41.0,20,30.06,6.2,NE,4.6,-,N/A,,Scattered Clouds,50,2013-09-02 10:50:00
2:50 PM,86.0,42.8,22,30.04,6.2,ENE,8.1,-,N/A,,Scattered Clouds,70,2013-09-02 11:50:00
3:50 PM,84.2,46.4,27,30.04,6.2,NNE,8.1,-,N/A,,Mostly Cloudy,20,2013-09-02 12:50:00
4:50 PM,84.2,46.4,27,30.04,6.2,ENE,9.2,-,N/A,,Mostly Cloudy,70,2013-09-02 13:50:00
5:50 PM,84.2,53.6,35,30.04,6.2,NNE,11.5,-,N/A,,Scattered Clouds,30,2013-09-02 14:50:00
6:50 PM,80.6,55.4,42,30.06,6.2,NNE,6.9,-,N/A,,Mostly Cloudy,30,2013-09-02 15:50:00
7:50 PM,78.8,57.2,47,30.06,6.2,East,5.8,-,N/A,,Mostly Cloudy,80,2013-09-02 16:50:00
8:50 PM,77.0,57.2,50,30.06,6.2,Calm,Calm,-,N/A,,Mostly Cloudy,0,2013-09-02 17:50:00
10:50 PM,73.4,59.0,61,30.09,6.2,Calm,Calm,-,N/A,,Partly Cloudy,0,2013-09-02 19:50:00
11:50 PM,69.8,57.2,64,30.09,-9999.0,Calm,Calm,-,N/A,,Clear,0,2013-09-02 20:50:00